Regional Weather Roundup
Issued by NWS

Home | Current Version | Previous Version | Text Only | Print | Product List | Glossary Off
Versions: 1 2 3 4 5 6 7 8 9 10 11 12 13 14 15 16 17 18 19 20 21 22 23 24 25 26 27 28 29 30 31 32 33 34 35 36 37 38 39 40 41 42 43 44 45 46 47 48 49 50

000
ASUS45 KPSR 190500
RWRAZ

PRELIMINARY ARIZONA REGIONAL HOURLY WEATHER ROUNDUP
NATIONAL WEATHER SERVICE PHOENIX AZ
1000 PM MST THU SEP 18 2014

NOTE: FAIR INDICATES FEW OR NO CLOUDS BELOW 12,000 FEET WITH NO
SIGNIFICANT WEATHER AND/OR OBSTRUCTIONS TO VISIBILITY.

AZZ001>003-036-190600-
NORTHWEST ARIZONA

CITY           SKY/WX    TMP DP  RH WIND       PRES   REMARKS
KINGMAN        CLEAR     78  56  46 S12       29.87S
$$

AZZ004>008-015-016-018-190600-
NORTH CENTRAL ARIZONA

CITY           SKY/WX    TMP DP  RH WIND       PRES   REMARKS
GRAND CANYON   CLEAR     59  51  75 SW3       30.12R
PRESCOTT       CLEAR     70  58  65 S8        30.03R
FLAGSTAFF      PTCLDY    58  55  90 MISG      30.17R
PAYSON         CLOUDY    68  61  77 CALM      30.06S
PAGE           PTCLDY    81  50  33 S8        29.89R
$$

AZZ009>014-017-190600-
NORTHEAST ARIZONA

CITY           SKY/WX    TMP DP  RH WIND       PRES   REMARKS
WINSLOW        NOT AVBL
SAINT JOHNS    CLOUDY    65  57  75 NE5       30.05R
WINDOW ROCK    PTCLDY    61  48  62 CALM      30.12
SHOW LOW       PTCLDY    59  55  88 S9        30.14S
$$

AZZ023-190600-
GREATER PHOENIX AREA

CITY           SKY/WX    TMP DP  RH WIND       PRES   REMARKS
PHOENIX        PTCLDY    89  65  44 S7        29.74R
DEER VALLEY    PTCLDY    86  63  45 CALM      29.77R
SCOTTSDALE     PTCLDY    86  65  49 SE3       29.79R
MESA-GATEWAY   PTCLDY    86  66  51 VRB6      29.79S
$$

AZZ027-028-190600-
SOUTHWEST MARICOPA COUNTY AND PINAL COUNTY

CITY           SKY/WX    TMP DP  RH WIND       PRES   REMARKS
CASA GRANDE    PTCLDY    84  64  51 CALM      29.80R
GILA BEND      CLEAR     88  70  55 S3        29.75R
$$

AZZ503-504-507>509-190600-
SOUTHEAST ARIZONA

CITY           SKY/WX    TMP DP  RH WIND       PRES   REMARKS
TUCSON         CLEAR     77  68  73 S6        29.90R
DAVIS-MONTHAN  CLOUDY    76  69  79 SE2       29.88S
NOGALES        CLOUDY    69  67  93 S6        29.98R
SIERRA VISTA   CLOUDY    70  64  83 CALM      30.03R
SAFFORD        CLOUDY    72  67  84 CALM      29.92R
$$

AZZ020-021-025-026-031-190600-
SOUTHWEST ARIZONA

CITY           SKY/WX    TMP DP  RH WIND       PRES   REMARKS
YUMA           PTCLDY    90  52  27 W6        29.71R
$$

CAZ031-033-041-043-047-048-061-190600-
SOUTHERN CALIFORNIA

CITY           SKY/WX    TMP DP  RH WIND       PRES   REMARKS
DOWNTOWN L.A.  CLEAR     70  62  76 CALM      29.84S
L.A. AIRPORT   PTCLDY    70  63  78 W9        29.85S
SAN DIEGO      CLOUDY    73  65  75 W7        29.88S
BURBANK        CLEAR     70  61  73 CALM      29.86R
ONTARIO        PTCLDY    70  63  78 SW8       29.87R
RIVERSIDE      CLEAR     70  64  81 VRB6      29.87R
PALM SPRINGS   CLEAR     89  56  32 NW17      29.69S
EL CENTRO NAS  CLEAR     84  57  39 SW16      29.68R
IMPERIAL       CLEAR     84  58  40 W16       29.67R
BLYTHE         CLEAR     92  48  22 SW10      29.66R
$$

NVZ020-UTZ003-190600-
SOUTHERN NEVADA-UTAH

CITY           SKY/WX    TMP DP  RH WIND       PRES   REMARKS
LAS VEGAS      NOT AVBL
SALT LAKE CITY MOCLDY    70  53  54 NW14      29.88R
$$

NMZ009-TXZ055-190600-
NEW MEXICO-WEST TEXAS

CITY           SKY/WX    TMP DP  RH WIND       PRES   REMARKS
ALBUQUERQUE    MOCLDY    67  58  72 S6        30.08R
EL PASO        LGT RAIN  67  65  93 CALM      29.98F
$$


........................KEY........................
SKY/WX - SKY CONDITION/WEATHER
TMP    - TEMPERATURE IN FAHRENHEIT
DP     - DEW POINT IN FAHRENHEIT
RH     - RELATIVE HUMIDITY IN PERCENT
WIND   - DIRECTION AND SPEED IN MILES PER HOUR (MPH)
VRB    - VARIABLE WIND DIRECTION
PRES   - MEAN SEA LEVEL PRESSURE IN INCHES OF MERCURY
         F - FALLING PRESSURE   R - RISING PRESSURE
         S - STEADY PRESSURE
VSB    - VISIBILITY IN MILES
HX     - HEAT INDEX IN FAHRENHEIT
WCI    - WIND CHILL INDEX IN FAHRENHEIT
TC     - TEMPERATURE IN CELSIUS WHICH IS ALSO KNOWN AS
         TEMPERATURE IN CENTIGRADE
AFB    - AIR FORCE BASE
         LUKE AFB IS LUKE AIR FORCE BASE
         DAVIS-MONTHAN IS DAVIS-MONTHAN AIR FORCE BASE
NAS    - NAVAL AIR STATION
         EL CENTRO NAS IS EL CENTRO NAVAL AIR STATION
N/A    - NOT AVAILABLE


USA.gov is the U.S. government's official web portal to all federal, state and local government web resources and services.